Writtle, United Kingdom
Current Conditions -  °F | °C
As of 10:20 AM on Thursday 23 Oct 2014 (Local Time) from EGSS Reporting Station
Broken Clouds Broken Clouds  
Wind Chill: 55°   Ceiling: 2700
Heat Index: 55°   Visibility: 6mi
Dew Point: 50°   Wind: 13mph
Humidity: 82%   Direction: 230°SW
Pressure: 30.12"   Gusts: NA
Location:  51.73°N, 0.43°E
Report Text: EGSS 230920Z 23011KT 9999 FEW019 BKN027 13/10 Q1020
Loading
Personal Weather Stations






























Interactive Weather Map
Tropical Storm Tracking
New forecast layout! Learn more

10-Day Weather Forecast

Advertisements
Track Severe Weather on mobile